Dubuque, IA

2:41 PM CST on November 13, 2019 (GMT -0600)
Dubuque Regional

Weather History for KDBQ - September, 2019

Change the Weather History Date:

Saturday, September 7, 2019

  Actual Average Record
Temperature  
Mean Temperature 62 °F 66 °F  
Max Temperature 73 °F 76 °F 99 °F (1939)
Min Temperature 51 °F 55 °F 37 °F (1956)
Degree Days  
Heating Degree Days 2 3  
Month to date heating degree days 14 15  
Since 1 July heating degree days 23 42  
Cooling Degree Days 0 3  
Month to date cooling degree days 14 24  
Year to date cooling degree days 587 600  
Growing Degree Days 12 (Base 50)    
Moisture  
Dew Point 58 °F    
Average Humidity 84    
Maximum Humidity 100    
Minimum Humidity 68    
Precipitation  
Precipitation 0.04 in 0.11 in 2.06 in (1938)
Month to date precipitation 0.39 0.83  
Year to date precipitation 31.52 26.81  
Snow  
Snow 0.00 in 0.00 in - ()
Month to date snowfall 0.0 0.0  
Since 1 July snowfall 0.0 0.0  
Since 1 September snowfall 0.0 0.0  
Snow Depth 0.00 in    
Sea Level Pressure  
Sea Level Pressure 30.07 in    
Wind  
Wind Speed 5 mph ()    
Max Wind Speed 14 mph    
Max Gust Speed 18 mph    
Visibility 9.8 miles    
Events Rain    
T = Trace of Precipitation, MM = Missing Value Source: Averaged Metar Reports

Daily Weather History Graph

Daily Weather History Graph

Search for Another Location

Airport or City:

Astronomy

Sep. 07, 2019 Rise Set
Actual Time 6:34 AM CDT 7:26 PM CDT
Civil Twilight 6:05 AM CDT 7:55 PM CDT
Nautical Twilight 5:31 AM CDT 8:29 PM CDT
Astronomical Twilight 4:56 AM CDT 9:04 PM CDT
Moon 3:48 PM CDT (9/7) 12:20 AM CDT (9/7)
Length of Visible Light 13h 49m
Length of Day
12h 52m
Waxing Gibbous, 66% of the Moon is Illuminated
Sep 7
Waxing Gibbous
Sep 13
Full
Sep 21
Last Quarter
Sep 28
New
Oct 5
First Quarter

Hourly Weather History & Observations

Time (CDT) Temp. Dew Point Humidity Pressure Visibility Wind Dir Wind Speed Gust Speed Precip Events Conditions
12:53 AM 54.0 °F 54.0 °F 100% 30.09 in 10.0 mi Calm Calm - N/A   Clear
1:53 AM 53.1 °F 52.0 °F 96% 30.09 in 10.0 mi Calm Calm - N/A   Clear
2:53 AM 53.1 °F 52.0 °F 96% 30.09 in 10.0 mi Calm Calm - N/A   Clear
3:53 AM 53.1 °F 52.0 °F 96% 30.09 in 10.0 mi Calm Calm - N/A   Clear
4:53 AM 52.0 °F 51.1 °F 97% 30.08 in 10.0 mi SW 4.6 mph - N/A   Clear
5:53 AM 52.0 °F 52.0 °F 100% 30.08 in 10.0 mi SSW 4.6 mph - N/A   Clear
6:53 AM 53.1 °F 53.1 °F 100% 30.09 in 10.0 mi SSW 3.5 mph - N/A   Clear
7:53 AM 57.0 °F 55.9 °F 96% 30.09 in 10.0 mi SW 4.6 mph - N/A   Clear
8:53 AM 63.0 °F 59.0 °F 87% 30.09 in 10.0 mi WSW 10.4 mph - N/A   Clear
9:53 AM 66.0 °F 59.0 °F 78% 30.07 in 10.0 mi WSW 8.1 mph - N/A   Partly Cloudy
10:53 AM 69.1 °F 60.1 °F 73% 30.07 in 10.0 mi WNW 10.4 mph - N/A   Mostly Cloudy
11:53 AM 72.0 °F 62.1 °F 71% 30.06 in 10.0 mi West 11.5 mph - N/A   Partly Cloudy
12:51 PM 71.6 °F 62.6 °F 73% 30.07 in 10.0 mi West 9.2 mph - N/A   Overcast
12:53 PM 71.1 °F 62.1 °F 73% 30.07 in 10.0 mi West 10.4 mph - N/A   Overcast
1:10 PM 71.1 °F 62.1 °F 73% 30.07 in 10.0 mi West 11.5 mph - N/A   Overcast
1:53 PM 73.0 °F 64.0 °F 73% 30.06 in 10.0 mi West 8.1 mph - N/A   Mostly Cloudy
2:53 PM 73.0 °F 64.0 °F 73% 30.06 in 10.0 mi NNW 10.4 mph - N/A   Mostly Cloudy
3:53 PM 71.1 °F 61.0 °F 70% 30.04 in 10.0 mi North 10.4 mph - N/A   Partly Cloudy
4:53 PM 68.0 °F 60.1 °F 76% 30.04 in 10.0 mi NNE 9.2 mph - N/A   Scattered Clouds
5:53 PM 66.9 °F 57.9 °F 73% 30.05 in 10.0 mi North 5.8 mph - N/A   Overcast
6:53 PM 64.0 °F 57.9 °F 80% 30.06 in 10.0 mi North 5.8 mph - N/A   Overcast
7:53 PM 64.0 °F 57.9 °F 80% 30.05 in 10.0 mi NNE 5.8 mph - N/A   Mostly Cloudy
8:53 PM 63.0 °F 57.9 °F 84% 30.05 in 10.0 mi NE 8.1 mph - N/A   Mostly Cloudy
9:53 PM 62.1 °F 57.0 °F 84% 30.06 in 10.0 mi NNE 5.8 mph - N/A   Overcast
10:53 PM 60.1 °F 57.0 °F 90% 30.06 in 6.0 mi NE 8.1 mph - 0.02 in Rain Rain
11:53 PM 60.1 °F 57.9 °F 93% 30.07 in 10.0 mi NNE 5.8 mph - 0.02 in   Overcast